Location: Fuglau
(48.6333°N, 15.5500°E)
Time: 11:53:02
(UTC+00:00)

STARLINK-1055 - Pass Details

Date: 27 February 2020
Orbit: 549 x 550 km, 53.0° (Epoch: 09 April)

Event Time Altitude Azimuth Distance (km) Brightness Sun altitude
Rises 18:42:00 0° 250° (WSW) 2,712 8.1 -21.3°
Reaches altitude 10° 18:44:14 10° 253° (WSW) 1,821 7.1 -21.6°
Maximum altitude 18:48:22 73° 338° (NNW) 578 3.7 -22.3°
Enters shadow 18:48:47 66° 26° (NNE) 604 3.6 -22.4°
